カタログに戻る

IRNSS 1C

運用中ナビゲーションGEO
NORAD 40269·PAYLOAD·🇮🇳 India

打ち上げ Oct 15, 2014 から Satish Dhawan Space Centre

Loading…

TLE

最新Source: CelesTrak SupGP

元期: Sep 13, 2026, 23:59 UTC

1 40269C 14061A   26256.99979167 -.00000075  00000+0  00000+0 0  2568
2 40269   6.7384  87.2163 0020242   9.7759 338.9669  1.00271569    11

AllMySatでIRNSS 1Cをリアルタイム追跡

Download on the App Store